DateTimeUTC,F1_A11,F1_S11,BsB_S11,BsG_S11,BsR_S11,BbsB_S11,BbsG_S11,BbsR_S11,BaB_A11,BaG_A11,BaR_A11,Tu_S11,T_S11,Uu_S11,U_S11,P_S11,T1_A11
2021-03-03T04:00:00Z,00000200,21000000,,,,,,,0000.64,0000.10,0000.04,17.0,24.0,,00.0,0658.4,30.9
2021-03-03T04:01:00Z,00000200,21000000,,,,,,,-000.04,0000.10,0000.06,17.0,24.0,,00.0,0658.4,30.9
2021-03-03T04:02:00Z,00000200,21000000,,,,,,,-000.58,-000.31,-000.10,17.0,24.0,,00.0,0658.4,30.9
2021-03-03T04:03:00Z,00000200,61000000,,,,,,,0000.64,0000.49,0000.36,17.0,24.0,,00.0,0658.4,30.8
2021-03-03T04:04:00Z,00000200,41000000,0002.84,0001.95,0000.93,0000.08,0000.30,0000.11,0000.65,0000.44,0000.60,17.0,23.8,,00.0,0659.3,30.8
2021-03-03T04:05:00Z,00000200,01000000,0002.32,0001.92,0001.04,-000.03,0000.21,0000.22,0000.37,0000.40,0000.15,16.9,23.7,,00.0,0659.4,30.8
2021-03-03T04:06:00Z,00000200,01000000,0002.59,0001.89,0001.07,0000.22,0000.07,0000.28,0000.78,0000.79,0000.30,16.9,23.7,,00.0,0659.4,30.8
2021-03-03T04:07:00Z,00000200,01000000,0002.47,0002.06,0001.20,0000.12,0000.32,0000.19,0000.34,0000.54,0000.42,16.8,23.7,,00.0,0659.4,30.8
2021-03-03T04:08:00Z,00000200,01000000,0003.14,0002.21,0001.05,0000.08,0000.17,0000.27,0000.38,0000.28,0000.17,16.8,23.7,,00.0,0659.4,30.8
2021-03-03T04:09:00Z,00000200,01000000,0002.89,0002.15,0001.15,-000.08,0000.29,0000.11,0000.77,0000.58,0000.20,16.7,23.6,,00.0,0659.5,30.8
2021-03-03T04:10:00Z,00000200,01000000,0002.72,0002.29,0001.21,0000.27,0000.28,0000.24,0000.48,0000.28,0000.64,16.7,23.6,,00.0,0659.5,30.8
2021-03-03T04:11:00Z,00000200,01000000,0003.34,0002.23,0001.23,0000.37,0000.23,0000.32,0000.57,0000.30,0000.25,16.6,23.6,,00.0,0659.4,30.8
2021-03-03T04:12:00Z,00000200,01000000,0002.60,0002.11,0001.18,0000.54,0000.60,0000.28,0000.17,0000.36,0000.29,16.6,23.5,,00.0,0659.4,30.8
2021-03-03T04:13:00Z,00000200,01000000,0002.59,0002.10,0000.74,0000.85,0000.25,0000.10,0000.49,0000.83,0000.32,16.6,23.5,,00.0,0659.4,30.8
2021-03-03T04:14:00Z,00000200,01000000,0003.03,0002.23,0000.99,0000.24,0000.23,0000.22,0000.51,-000.11,0000.17,16.5,23.4,,00.0,0659.4,30.8
2021-03-03T04:15:00Z,00000200,01000000,0002.55,0002.16,0000.87,0000.24,0000.47,0000.15,0000.45,0000.82,0000.72,16.5,23.4,,00.0,0659.3,30.8
2021-03-03T04:16:00Z,00000200,01000000,0003.09,0002.14,0001.05,0000.47,0000.25,0000.08,0000.70,0000.08,-000.12,16.5,23.4,,00.0,0659.4,30.8
2021-03-03T04:17:00Z,00000200,01000000,0002.92,0002.10,0001.15,0000.23,0000.04,0000.01,0000.35,0000.26,0000.31,16.6,23.4,,00.0,0659.3,30.8
2021-03-03T04:18:00Z,00000200,01000000,0002.59,0002.03,0001.20,0000.40,0000.38,-000.09,0000.69,0000.73,0000.36,16.6,23.4,,00.0,0659.3,30.8
2021-03-03T04:19:00Z,00000200,01000000,0002.80,0002.14,0001.00,0000.23,0000.29,0000.19,0000.83,0000.62,0000.79,16.7,23.5,,00.0,0659.2,30.8
2021-03-03T04:20:00Z,00000200,01000000,0003.17,0002.02,0001.18,0000.36,0000.50,0000.20,0000.57,0000.52,0000.06,16.7,23.5,,00.0,0659.2,30.8
2021-03-03T04:21:00Z,00000200,01000000,0003.14,0002.01,0001.18,0000.71,0000.04,0000.24,0000.38,0000.41,0000.49,16.8,23.5,,00.0,0659.3,30.8
2021-03-03T04:22:00Z,00000200,01000000,0002.83,0002.46,0001.21,0000.25,0000.32,0000.12,0000.70,0000.42,0000.45,16.8,23.6,,00.0,0659.3,30.8
2021-03-03T04:23:00Z,00000200,01000000,0003.06,0002.41,0001.20,0000.13,0000.42,0000.05,0000.45,0000.80,0000.32,16.9,23.6,,00.0,0659.3,30.8
2021-03-03T04:24:00Z,00000200,01000000,0002.66,0002.31,0001.12,0000.66,0000.49,0000.28,0000.60,0000.48,0000.22,16.9,23.6,,00.0,0659.2,30.8
2021-03-03T04:25:00Z,00000200,01000000,0002.67,0001.88,0001.17,0000.04,0000.21,0000.36,0000.54,0000.55,0000.39,17.0,23.6,,00.0,0659.3,30.8
2021-03-03T04:26:00Z,00000200,01000000,0002.51,0002.44,0001.62,-000.00,0000.25,0000.26,0000.47,0000.13,0000.29,17.0,23.7,,00.0,0659.4,30.8
2021-03-03T04:27:00Z,00000200,01000000,0003.21,0002.22,0001.28,0000.18,0000.39,0000.36,0000.26,0000.64,0000.45,17.1,23.7,,00.0,0659.3,30.8
2021-03-03T04:28:00Z,00000200,01000000,0002.65,0002.24,0000.87,-000.28,0000.20,0000.30,0000.42,0000.50,0000.32,17.1,23.7,,00.0,0659.3,30.8
2021-03-03T04:29:00Z,00000200,01000000,0002.80,0002.05,0001.12,0000.29,0000.27,0000.23,0000.53,0000.33,0000.37,17.2,23.7,,00.0,0659.3,30.9
2021-03-03T04:30:00Z,00000200,01000000,0003.16,0002.25,0001.22,0000.77,0000.27,0000.27,0000.51,0000.61,0000.38,17.2,23.8,,00.0,0659.3,30.9
2021-03-03T04:31:00Z,00000200,01000000,0002.63,0002.14,0001.07,0000.40,0000.34,0000.38,0000.64,0000.20,0000.02,17.2,23.8,,00.0,0659.3,30.9
2021-03-03T04:32:00Z,00000200,01000000,0002.98,0002.37,0001.08,0000.37,0000.31,0000.40,0000.48,0000.77,0000.65,17.2,23.7,,00.0,0659.3,30.9
2021-03-03T04:33:00Z,00000200,01000000,0002.60,0002.20,0000.98,0000.22,0000.17,0000.39,0000.49,0000.32,0000.11,17.2,23.7,,00.0,0659.3,30.9
2021-03-03T04:34:00Z,00000200,01000000,0003.06,0002.24,0001.14,0000.21,0000.39,0000.45,0000.52,0000.70,0000.58,17.1,23.7,,00.0,0659.3,30.9
2021-03-03T04:35:00Z,00000200,01000000,0002.85,0002.14,0001.32,0000.46,0000.40,0000.32,0000.46,0000.23,0000.24,17.0,23.7,,00.0,0659.3,30.8
2021-03-03T04:36:00Z,00000200,01000000,0003.22,0002.05,0001.27,0000.07,0000.28,0000.34,0000.53,0000.35,0000.10,17.0,23.7,,00.0,0659.3,30.8
2021-03-03T04:37:00Z,00000200,01000000,0002.85,0002.14,0001.13,-000.18,0000.27,0000.09,0000.18,0000.39,0000.47,16.9,23.7,,00.0,0659.3,30.8
2021-03-03T04:38:00Z,00000200,01000000,0002.73,0002.37,0001.33,0000.41,0000.18,-000.01,0000.63,0000.54,0000.33,16.9,23.6,,00.0,0659.3,30.8
2021-03-03T04:39:00Z,00000200,01000000,0003.28,0002.20,0000.91,0000.07,0000.37,0000.26,0000.91,0000.48,0000.37,16.8,23.6,,00.0,0659.3,30.8
2021-03-03T04:40:00Z,00000200,01000000,0002.13,0002.15,0001.19,0000.43,0000.25,0000.32,0000.26,0000.32,0000.26,16.8,23.5,,00.0,0659.3,30.8
2021-03-03T04:41:00Z,00000200,01000000,0003.12,0002.58,0001.21,-000.01,0000.25,0000.19,0000.53,0000.52,0000.27,16.7,23.5,,00.0,0659.3,30.8
2021-03-03T04:42:00Z,00000200,01000000,0002.80,0002.25,0001.26,0000.35,0000.41,0000.31,0000.31,0000.49,0000.41,16.7,23.5,,00.0,0659.3,30.8
2021-03-03T04:43:00Z,00000200,01000000,0002.62,0002.50,0001.34,0000.45,0000.49,0000.39,0000.82,0000.33,0000.02,16.6,23.4,,00.0,0659.3,30.8
2021-03-03T04:44:00Z,00000200,01000000,0002.93,0002.09,0001.16,0000.49,0000.38,0000.42,0000.12,0000.21,0000.26,16.6,23.4,,00.0,0659.4,30.8
2021-03-03T04:45:00Z,00000200,01000000,0003.38,0002.14,0001.39,0000.12,0000.24,0000.24,0000.67,0000.78,0000.38,16.5,23.4,,00.0,0659.3,30.8
2021-03-03T04:46:00Z,00000200,01000000,0003.09,0002.40,0001.58,0000.55,0000.32,0000.32,0000.23,-000.25,0000.10,16.5,23.4,,00.0,0659.3,30.7
2021-03-03T04:47:00Z,00000200,01000000,0003.55,0002.30,0001.43,0000.47,0000.64,0000.35,0000.57,0000.84,0000.74,16.5,23.3,,00.0,0659.3,30.8
2021-03-03T04:48:00Z,00000200,01000000,0003.37,0002.31,0001.11,-000.10,0000.32,0000.06,0000.52,0000.44,0000.23,16.5,23.4,,00.0,0659.3,30.8
2021-03-03T04:49:00Z,00000200,01000000,0003.79,0002.27,0001.23,-000.11,0000.15,0000.11,0000.27,0000.14,0000.41,16.6,23.4,,00.0,0659.3,30.8
2021-03-03T04:50:00Z,00000200,01000000,0002.70,0002.67,0001.21,0000.71,0000.32,0000.00,0000.63,0000.59,0000.11,16.7,23.4,,00.0,0659.3,30.8
2021-03-03T04:51:00Z,00000200,01000000,0002.72,0002.11,0000.96,0000.75,0000.27,0000.32,0000.85,0000.50,0000.43,16.7,23.4,,00.0,0659.4,30.8
2021-03-03T04:52:00Z,00000200,01000000,0003.20,0002.05,0001.03,0000.40,0000.23,-000.04,0000.33,0000.75,0000.35,16.8,23.5,,00.0,0659.3,30.8
2021-03-03T04:53:00Z,00000200,01000000,0003.47,0002.09,0001.10,0000.74,0000.28,0000.26,0000.66,0000.31,0000.29,16.8,23.5,,00.0,0659.4,30.8
2021-03-03T04:54:00Z,00000200,01000000,0003.42,0001.95,0001.25,0000.07,0000.08,0000.29,0000.17,0000.41,0000.17,16.9,23.5,,00.0,0659.4,30.8
2021-03-03T04:55:00Z,00000200,01000000,0003.10,0002.19,0001.05,0000.40,0000.49,0000.01,0000.79,0000.86,0000.68,16.9,23.6,,00.0,0659.4,30.8
2021-03-03T04:56:00Z,00000200,01000000,0003.31,0002.33,0001.18,-000.12,0000.35,0000.00,0000.37,0000.01,0000.33,17.0,23.6,,00.0,0659.4,30.8
2021-03-03T04:57:00Z,00000200,41000000,,,,,,,0000.32,-000.01,0000.26,17.0,23.6,,00.0,0659.5,30.8
2021-03-03T04:58:00Z,00000200,61000000,,,,,,,-000.12,-000.09,-000.22,16.8,23.8,,00.0,0658.5,30.8
2021-03-03T04:59:00Z,00000200,21000000,,,,,,,-000.27,0000.26,-000.16,16.8,23.9,,00.0,0658.5,30.9
